Weather History for KWRI - December, 2014

Change the Weather History Date:

Wednesday, December 24, 2014

  Actual Average Record
Temperature  
Mean Temperature 54 °F -  
Max Temperature 63 °F 40 °F 64 °F (1996)
Min Temperature 46 °F 24 °F 15 °F (2000)
Degree Days  
Heating Degree Days 10    
Growing Degree Days 4 (Base 50)    
Moisture  
Dew Point 54 °F    
Average Humidity 100    
Maximum Humidity 100    
Minimum Humidity 99    
Precipitation  
Precipitation 0.63 in - - ()
Sea Level Pressure  
Sea Level Pressure 29.79 in    
Wind  
Wind Speed 8 mph (ESE)    
Max Wind Speed 18 mph    
Max Gust Speed 25 mph    
Visibility 7 miles    
Events Rain    
Averages and records for this station are not official NWS values.
T = Trace of Precipitation, MM = Missing Value Source: NWS Daily Summary

Daily Weather History Graph

Daily Weather History Graph

Search for Another Location

Airport or City:

Trip Planner

Search our weather history database for the weather conditions in past years. The results will help you decide how hot, cold, wet, or windy it might be!

Date:

Astronomy

Dec. 24, 2014 Rise Set
Actual Time 7:18 AM EST 4:37 PM EST
Civil Twilight 6:47 AM EST 5:08 PM EST
Nautical Twilight 6:13 AM EST 5:42 PM EST
Astronomical Twilight 5:40 AM EST 6:15 PM EST
Moon 9:07 AM EST (12/24) 7:59 PM EST (12/24)
Length of Visible Light 10h 21m
Length of Day
9h 19m
Waxing Crescent, 9% of the Moon is Illuminated
Dec 24
Waxing Crescent
Dec 28
First Quarter
Jan 4
Full
Jan 13
Last Quarter
Jan 20
New

Hourly Weather History & Observations

Time (EST) Temp. Windchill Dew Point Humidity Pressure Visibility Wind Dir Wind Speed Gust Speed Precip Events Conditions
12:13 AM 46.4 °F 42.9 °F 46.4 °F 100% 30.03 in 3.0 mi ENE 6.9 mph - N/A   Overcast
12:23 AM 46.4 °F 42.4 °F 46.4 °F 100% 30.02 in 4.0 mi ENE 8.1 mph - N/A   Overcast
12:38 AM 46.4 °F 43.5 °F 46.4 °F 100% 30.03 in 5.0 mi ENE 5.8 mph - N/A   Overcast
12:43 AM 46.4 °F 43.5 °F 46.4 °F 100% 30.03 in 5.0 mi East 5.8 mph - N/A   Overcast
12:58 AM 46.4 °F 44.3 °F 46.4 °F 100% 30.04 in 5.0 mi East 4.6 mph - N/A   Overcast
1:03 AM 46.4 °F 43.5 °F 46.4 °F 100% 30.04 in 5.0 mi East 5.8 mph - N/A   Overcast
1:33 AM 46.4 °F 43.5 °F 46.4 °F 100% 30.02 in 5.0 mi NE 5.8 mph - N/A   Overcast
1:38 AM 46.4 °F 42.9 °F 46.4 °F 100% 30.02 in 5.0 mi ENE 6.9 mph - N/A   Overcast
1:58 AM 46.4 °F 44.3 °F 46.4 °F 100% 30.02 in 4.0 mi ENE 4.6 mph - N/A   Overcast
2:08 AM 46.4 °F 43.5 °F 46.4 °F 100% 30.02 in 5.0 mi ENE 5.8 mph - N/A   Overcast
2:18 AM 46.4 °F 43.5 °F 46.4 °F 100% 30.02 in 7.0 mi ENE 5.8 mph - N/A   Overcast
2:33 AM 46.4 °F 44.3 °F 46.4 °F 100% 30.01 in 6.0 mi ENE 4.6 mph - N/A   Overcast
2:43 AM 46.4 °F 43.5 °F 46.4 °F 100% 30.01 in 7.0 mi ENE 5.8 mph - N/A   Overcast
2:48 AM 46.4 °F 44.3 °F 46.4 °F 100% 30.02 in 7.0 mi ENE 4.6 mph - N/A   Overcast
2:58 AM 46.6 °F - 46.6 °F 100% 30.04 in 7.0 mi East 5.8 mph - N/A   Overcast
3:08 AM 46.4 °F 43.5 °F 46.4 °F 100% 30.01 in 4.0 mi East 5.8 mph - N/A   Overcast
3:13 AM 46.4 °F 42.9 °F 46.4 °F 100% 30.01 in 4.0 mi East 6.9 mph - N/A   Overcast
3:18 AM 46.4 °F 43.5 °F 46.4 °F 100% 30.01 in 3.0 mi East 5.8 mph - N/A   Overcast
3:23 AM 46.4 °F 43.5 °F 46.4 °F 100% 30.01 in 2.0 mi East 5.8 mph - N/A   Overcast
3:33 AM 46.4 °F 44.3 °F 46.4 °F 100% 30.01 in 1.8 mi East 4.6 mph - N/A   Overcast
3:40 AM 46.4 °F 43.5 °F 46.4 °F 100% 29.99 in 1.5 mi East 5.8 mph - N/A   Light Drizzle
3:45 AM 46.4 °F 44.3 °F 46.4 °F 100% 29.99 in 1.2 mi East 4.6 mph - N/A Rain Light Rain
3:58 AM 46.4 °F 43.5 °F 46.4 °F 100% 29.99 in 1.2 mi ENE 5.8 mph - 0.00 in Rain Light Rain
4:13 AM 46.4 °F 43.5 °F 46.4 °F 100% 29.98 in 1.5 mi ENE 5.8 mph - N/A Rain Light Rain
4:23 AM 46.4 °F 43.5 °F 46.4 °F 100% 29.98 in 2.0 mi East 5.8 mph - N/A Rain Light Rain
4:33 AM 46.4 °F 44.3 °F 46.4 °F 100% 29.98 in 3.0 mi ENE 4.6 mph - N/A Rain Light Rain
4:53 AM 46.4 °F 43.5 °F 46.4 °F 100% 29.98 in 5.0 mi ENE 5.8 mph - N/A Rain Light Rain
4:58 AM 46.4 °F 43.5 °F 46.4 °F 100% 29.99 in 6.0 mi East 5.8 mph - 0.03 in Rain Light Rain
5:08 AM 46.4 °F 43.5 °F 46.4 °F 100% 29.98 in 8.0 mi East 5.8 mph - N/A Rain Light Rain
5:38 AM 46.4 °F 42.9 °F 46.4 °F 100% 29.97 in 6.0 mi ENE 6.9 mph - N/A Rain Light Rain
5:48 AM 46.4 °F 42.4 °F 46.4 °F 100% 29.96 in 7.0 mi ENE 8.1 mph - N/A Rain Light Rain
5:58 AM 46.6 °F - 46.6 °F 100% 29.97 in 8.0 mi ENE 6.9 mph - 0.03 in Rain Light Rain
6:13 AM 46.4 °F 42.4 °F 46.4 °F 100% 29.95 in 10.0 mi ENE 8.1 mph - N/A Rain Light Rain
6:58 AM 47.1 °F - 47.1 °F 100% 29.94 in 10.0 mi East 9.2 mph - 0.01 in   Light Drizzle
6:59 AM 46.4 °F 41.9 °F 46.4 °F 100% 29.92 in 10.0 mi East 9.2 mph - N/A   Overcast
7:04 AM 48.2 °F - 48.2 °F 100% 29.92 in 10.0 mi East 8.1 mph - N/A   Light Drizzle
7:09 AM 48.2 °F - 48.2 °F 100% 29.92 in 9.0 mi East 9.2 mph - N/A Rain Light Rain
7:14 AM 48.2 °F - 48.2 °F 100% 29.92 in 7.0 mi East 10.4 mph - N/A Rain Light Rain
7:34 AM 48.2 °F - 48.2 °F 100% 29.91 in 6.0 mi East 10.4 mph - N/A   Overcast
7:47 AM 48.2 °F - 48.2 °F 100% 29.90 in 4.0 mi East 12.7 mph - N/A Rain Light Rain
7:57 AM 48.2 °F - 48.2 °F 100% 29.89 in 7.0 mi East 9.2 mph - N/A   Overcast
7:58 AM 48.4 °F - 48.4 °F 100% 29.90 in 7.0 mi East 9.2 mph - 0.01 in   Overcast
8:08 AM 48.2 °F - 48.2 °F 100% 29.89 in 8.0 mi East 10.4 mph - N/A Rain Light Rain
8:48 AM 50.0 °F - 50.0 °F 100% 29.88 in 2.5 mi East 9.2 mph - N/A Rain Rain
8:58 AM 50.0 °F - 50.0 °F 100% 29.89 in 2.5 mi East 11.5 mph - 0.08 in Rain Light Rain
9:03 AM 50.0 °F - 50.0 °F 100% 29.88 in 4.0 mi East 10.4 mph - N/A Rain Light Rain
9:22 AM 50.0 °F - 50.0 °F 100% 29.88 in 10.0 mi East 8.1 mph - N/A   Overcast
9:32 AM 50.0 °F - 50.0 °F 100% 29.88 in 5.0 mi East 8.1 mph - N/A Rain Rain
9:37 AM 50.0 °F - 50.0 °F 100% 29.87 in 1.8 mi East 8.1 mph - N/A Rain Heavy Rain
9:42 AM 50.0 °F - 50.0 °F 100% 29.87 in 1.5 mi East 8.1 mph - N/A Rain Rain
9:47 AM 50.0 °F - 50.0 °F 100% 29.87 in 2.0 mi East 8.1 mph - N/A Rain Light Rain
9:57 AM 51.8 °F - 51.8 °F 100% 29.87 in 3.0 mi East 4.6 mph - N/A Rain Light Rain
9:58 AM 50.9 °F - 50.9 °F 100% 29.88 in 3.0 mi East 4.6 mph - 0.16 in Rain Light Rain
10:02 AM 51.8 °F - 51.8 °F 100% 29.87 in 9.0 mi East 5.8 mph - N/A   Overcast
10:04 AM 51.8 °F - 51.8 °F 100% 29.88 in 7.0 mi Variable 4.6 mph - N/A Rain Light Rain
10:58 AM 52.5 °F - 52.5 °F 100% 29.85 in 5.0 mi ENE 2.3 mph - 0.03 in Rain Light Rain
11:38 AM 55.4 °F - 55.4 °F 100% 29.80 in 2.5 mi ESE 6.9 mph - N/A Rain Light Rain
11:43 AM 55.4 °F - 55.4 °F 100% 29.80 in 4.0 mi ESE 5.8 mph - N/A Rain Light Rain
11:58 AM 54.7 °F - 54.5 °F 99% 29.80 in 5.0 mi ESE 4.6 mph - 0.07 in Rain Light Rain
12:08 PM 55.4 °F - 55.4 °F 100% 29.77 in 3.0 mi East 4.6 mph - N/A Rain Light Rain
12:43 PM 55.4 °F - 55.4 °F 100% 29.74 in 2.5 mi Variable 3.5 mph - N/A Rain Rain
12:53 PM 55.4 °F - 55.4 °F 100% 29.74 in 3.0 mi East 2.3 mph - N/A Rain Light Rain
12:58 PM 56.3 °F - 56.3 °F 100% 29.75 in 4.0 mi East 3.5 mph - 0.13 in Rain Rain
1:53 PM 59.0 °F - 59.0 °F 100% 29.70 in 10.0 mi SSE 5.8 mph - N/A Rain Light Rain
1:58 PM 59.7 °F - 59.7 °F 100% 29.70 in 10.0 mi SE 5.8 mph - 0.04 in Rain Light Rain
2:00 PM 59.0 °F - 59.0 °F 100% 29.69 in 10.0 mi SSE 8.1 mph - N/A   Overcast
2:20 PM 60.8 °F - 60.8 °F 100% 29.68 in 10.0 mi SSE 6.9 mph - N/A Rain Light Rain
2:33 PM 60.8 °F - 60.8 °F 100% 29.68 in 10.0 mi SSE 8.1 mph - N/A   Overcast
2:58 PM 60.8 °F - 60.8 °F 100% 29.68 in 9.0 mi SSE 6.9 mph - 0.00 in   Overcast
3:19 PM 60.8 °F - 60.8 °F 100% 29.66 in 5.0 mi SE 8.1 mph - N/A Rain Light Rain
3:28 PM 60.8 °F - 60.8 °F 100% 29.66 in 9.0 mi SSE 8.1 mph - N/A   Overcast
3:39 PM 60.8 °F - 60.8 °F 100% 29.65 in 10.0 mi SSE 10.4 mph - N/A Rain Light Rain
3:44 PM 60.8 °F - 60.8 °F 100% 29.65 in 10.0 mi SSE 6.9 mph - N/A Rain Light Rain
3:58 PM 62.1 °F - 62.1 °F 100% 29.65 in 9.0 mi SSE 8.1 mph - 0.01 in Rain Light Rain
4:08 PM 62.6 °F - 62.6 °F 100% 29.64 in 10.0 mi SSE 10.4 mph - N/A   Light Drizzle
4:23 PM 62.6 °F - 62.6 °F 100% 29.64 in 9.0 mi SSE 11.5 mph - N/A Rain Light Rain
4:43 PM 62.6 °F - 62.6 °F 100% 29.64 in 10.0 mi South 13.8 mph 19.6 mph N/A Rain Light Rain
4:58 PM 63.0 °F - 63.0 °F 100% 29.65 in 10.0 mi South 15.0 mph 25.3 mph 0.02 in Rain Light Rain
5:13 PM 62.6 °F - 62.6 °F 100% 29.63 in 8.0 mi South 15.0 mph 23.0 mph N/A Rain Light Rain
5:23 PM 62.6 °F - 62.6 °F 100% 29.62 in 10.0 mi South 11.5 mph - N/A Rain Light Rain
5:24 PM 62.6 °F - 62.6 °F 100% 29.62 in 10.0 mi South 11.5 mph - N/A   Overcast
5:42 PM 62.6 °F - 62.6 °F 100% 29.62 in 10.0 mi South 12.7 mph - N/A Rain Light Rain
5:47 PM 62.6 °F - 62.6 °F 100% 29.61 in 10.0 mi South 12.7 mph - N/A Rain Light Rain
5:58 PM 63.0 °F - 63.0 °F 100% 29.62 in 10.0 mi South 10.4 mph - 0.01 in Rain Light Rain
6:04 PM 62.6 °F - 62.6 °F 100% 29.60 in 10.0 mi South 11.5 mph - N/A   Overcast
6:24 PM 62.6 °F - 62.6 °F 100% 29.60 in 10.0 mi South 11.5 mph - N/A   Overcast
6:44 PM 62.6 °F - 62.6 °F 100% 29.58 in 10.0 mi South 8.1 mph - N/A   Overcast
6:58 PM 62.4 °F - 62.4 °F 100% 29.59 in 10.0 mi SSW 8.1 mph - 0.00 in   Overcast
7:58 PM 61.9 °F - 61.9 °F 100% 29.62 in 10.0 mi SSW 11.5 mph - N/A   Overcast
8:34 PM 60.8 °F - 60.8 °F 100% 29.58 in 9.0 mi South 8.1 mph - N/A Rain Light Rain
8:44 PM 60.8 °F - 60.8 °F 100% 29.57 in 10.0 mi South 8.1 mph - N/A   Overcast
8:54 PM 60.8 °F - 60.8 °F 100% 29.56 in 7.0 mi South 9.2 mph - N/A   Overcast
8:58 PM 61.3 °F - 61.3 °F 100% 29.57 in 5.0 mi South 8.1 mph - 0.00 in   Overcast
9:03 PM 60.8 °F - 60.8 °F 100% 29.57 in 5.0 mi SSW 9.2 mph - N/A   Overcast
9:08 PM 60.8 °F - 60.8 °F 100% 29.58 in 5.0 mi SSW 10.4 mph - N/A   Overcast
9:18 PM 60.8 °F - 60.8 °F 100% 29.58 in 8.0 mi SW 11.5 mph - N/A   Overcast
9:23 PM 60.8 °F - 60.8 °F 100% 29.58 in 10.0 mi SSW 11.5 mph - N/A   Overcast
9:43 PM 62.6 °F - 62.6 °F 100% 29.57 in 10.0 mi SSW 12.7 mph - N/A   Overcast
9:53 PM 62.6 °F - 62.6 °F 100% 29.57 in 10.0 mi SSW 10.4 mph - N/A   Overcast
9:58 PM 61.7 °F - 61.7 °F 100% 29.57 in 10.0 mi SSW 10.4 mph - N/A   Mostly Cloudy
10:08 PM 62.6 °F - 62.6 °F 100% 29.52 in 10.0 mi South 15.0 mph 20.7 mph N/A   Mostly Cloudy
10:11 PM 62.6 °F - 62.6 °F 100% 29.51 in 10.0 mi South 13.8 mph 20.7 mph N/A Rain Light Rain
10:22 PM 62.6 °F - 62.6 °F 100% 29.52 in 10.0 mi South 15.0 mph 20.7 mph N/A   Partly Cloudy
10:32 PM 62.6 °F - 62.6 °F 100% 29.54 in 10.0 mi SSW 16.1 mph 21.9 mph N/A   Mostly Cloudy
10:33 PM 62.6 °F - 62.6 °F 100% 29.54 in 10.0 mi SSW 16.1 mph 21.9 mph N/A   Mostly Cloudy
10:38 PM 62.6 °F - 62.6 °F 100% 29.54 in 10.0 mi SSW 12.7 mph 21.9 mph N/A   Mostly Cloudy
10:58 PM 62.8 °F - 62.8 °F 100% 29.54 in 10.0 mi SW 13.8 mph 21.9 mph 0.00 in   Overcast
11:08 PM 62.6 °F - 62.6 °F 100% 29.53 in 10.0 mi SSW 13.8 mph - N/A   Overcast
11:48 PM 62.6 °F - 62.6 °F 100% 29.53 in 10.0 mi SW 18.4 mph - N/A   Overcast
11:58 PM 63.5 °F - 63.5 °F 100% 29.55 in 10.0 mi SSW 17.3 mph - N/A   Overcast